FW2788 Weather Reports


time (UTC)temp
C
wind
direction
speed
KPH
gust
KPH
rain 1hr
cm
rain 24hr
cm
rain mn
cm
humidity
%
barometer
mb
20260503030736 20 356 0.0 1.6 0.00 0.00 0.00 36
20260503030233 20 50 0.0 1.6 0.00 0.00 0.00 37
20260503025730 20 50 0.0 3.2 0.00 0.00 0.00 37
20260503025228 20 79 0.0 0.0 0.00 0.00 0.00 36
20260503024724 20 37 0.0 0.0 0.00 0.00 0.00 36
20260503024222 21 291 0.0 1.6 0.00 0.00 0.00 35
20260503023718 20 15 0.0 0.0 0.00 0.00 0.00 35
20260503023215 21 29 0.0 1.6 0.00 0.00 0.00 34
20260503022711 21 341 0.0 1.6 0.00 0.00 0.00 34
20260503022211 22 310 0.0 1.6 0.00 0.00 0.00 33
20260503021708 22 344 0.0 3.2 0.00 0.00 0.00 33
20260503021204 22 346 1.6 6.4 0.00 0.00 0.00 32
20260503020702 22 346 1.6 4.8 0.00 0.00 0.00 32
20260503020159 22 304 3.2 4.8 0.00 0.00 0.00 33
20260503015656 22 0 3.2 3.2 0.00 0.00 0.00 31
20260503015153 23 358 3.2 6.4 0.00 0.00 0.00 31
20260503014649 23 300 0.0 4.8 0.00 0.00 0.00 31
20260503014147 23 24 1.6 4.8 0.00 0.00 0.00 29
20260503013644 23 326 0.0 3.2 0.00 0.00 0.00 27
20260503013142 23 310 3.2 3.2 0.00 0.00 0.00 26
20260503012638 24 358 3.2 6.4 0.00 0.00 0.00 24
20260503012135 24 236 0.0 3.2 0.00 0.00 0.00 25
20260503011632 24 280 1.6 3.2 0.00 0.00 0.00 25
20260503011129 24 292 1.6 3.2 0.00 0.00 0.00 27
20260503010625 25 256 0.0 3.2 0.00 0.00 0.00 23
20260503010123 25 338 1.6 1.6 0.00 0.00 0.00 22
20260503005619 25 285 0.0 3.2 0.00 0.00 0.00 24
20260503005117 25 7 1.6 3.2 0.00 0.00 0.00 23
20260503004613 25 336 0.0 4.8 0.00 0.00 0.00 28
20260503004112 26 294 4.8 4.8 0.00 0.00 0.00 23
20260503003608 25 39 1.6 3.2 0.00 0.00 0.00 23
20260503003105 25 293 0.0 3.2 0.00 0.00 0.00 22
20260503002602 25 265 8.0 8.0 0.00 0.00 0.00 20
20260503002059 26 291 8.0 8.0 0.00 0.00 0.00 26
20260503001555 27 252 1.6 4.8 0.00 0.00 0.00 20
20260503001052 27 246 3.2 4.8 0.00 0.00 0.00 18
20260503000550 27 22 0.0 4.8 0.00 0.00 0.00 22
20260503000047 26 334 6.4 6.4 0.00 0.00 0.00 19
20260502235543 26 346 4.8 6.4 0.00 0.00 0.00 20
20260502235041 26 37 0.0 4.8 0.00 0.00 0.00 20
20260502234537 26 331 4.8 6.4 0.00 0.00 0.00 20
20260502234035 26 331 4.8 4.8 0.00 0.00 0.00 22
20260502233535 26 100 3.2 8.0 0.00 0.00 0.00 22
20260502233032 26 73 0.0 4.8 0.00 0.00 0.00 20
20260502232528 27 80 3.2 4.8 0.00 0.00 0.00 23
20260502232025 27 62 3.2 6.4 0.00 0.00 0.00 20
20260502231522 28 65 3.2 8.0 0.00 0.00 0.00 20
20260502231020 27 127 3.2 8.0 0.00 0.00 0.00 20
20260502230518 27 50 6.4 9.7 0.00 0.00 0.00 21
20260502230017 27 54 3.2 3.2 0.00 0.00 0.00 24
20260502225517 27 41 3.2 4.8 0.00 0.00 0.00 22
20260502225014 27 188 3.2 4.8 0.00 0.00 0.00 23
20260502224510 26 342 0.0 6.4 0.00 0.00 0.00 21
20260502224008 26 317 6.4 6.4 0.00 0.00 0.00 20
20260502223505 26 95 8.0 8.0 0.00 0.00 0.00 19
20260502223003 26 109 4.8 8.0 0.00 0.00 0.00 22
20260502222500 26 91 3.2 8.0 0.00 0.00 0.00 21
20260502221956 26 256 1.6 4.8 0.00 0.00 0.00 24
20260502221452 26 99 6.4 6.4 0.00 0.00 0.00 21
20260502220949 26 58 4.8 9.7 0.00 0.00 0.00 21
20260502220445 26 199 1.6 6.4 0.00 0.00 0.00 20
20260502215942 26 103 3.2 6.4 0.00 0.00 0.00 21
20260502215439 27 160 3.2 6.4 0.00 0.00 0.00 19
20260502214936 27 119 3.2 4.8 0.00 0.00 0.00 20
20260502214433 26 64 0.0 8.0 0.00 0.00 0.00 23
20260502213930 27 107 3.2 9.7 0.00 0.00 0.00 21
20260502213426 27 210 4.8 14.5 0.00 0.00 0.00 20
20260502212926 27 210 3.2 11.3 0.00 0.00 0.00 25
20260502212424 27 277 6.4 8.0 0.00 0.00 0.00 24
20260502211921 27 40 3.2 11.3 0.00 0.00 0.00 23
20260502211416 28 47 3.2 4.8 0.00 0.00 0.00 26
20260502210914 27 150 4.8 11.3 0.00 0.00 0.00 21
20260502210411 27 195 6.4 12.9 0.00 0.00 0.00 22
20260502205908 27 187 4.8 8.0 0.00 0.00 0.00 23
20260502205404 26 203 4.8 6.4 0.00 0.00 0.00 24
20260502204901 26 75 9.7 11.3 0.00 0.00 0.00 22
20260502204358 27 57 1.6 8.0 0.00 0.00 0.00 24
20260502203856 27 179 3.2 16.1 0.00 0.00 0.00 25
20260502203353 26 209 3.2 11.3 0.00 0.00 0.00 24
20260502202849 26 60 6.4 14.5 0.00 0.00 0.00 22
20260502202346 27 60 4.8 12.9 0.00 0.00 0.00 23
20260502201844 27 148 9.7 20.9 0.00 0.00 0.00 22
20260502201340 26 10 3.2 6.4 0.00 0.00 0.00 25
20260502200836 26 211 6.4 9.7 0.00 0.00 0.00 24
20260502200332 26 109 3.2 9.7 0.00 0.00 0.00 26
20260502195830 26 79 4.8 6.4 0.00 0.00 0.00 28
20260502195327 26 54 3.2 12.9 0.00 0.00 0.00 25
20260502194824 26 79 6.4 12.9 0.00 0.00 0.00 25
20260502194321 26 188 4.8 12.9 0.00 0.00 0.00 26
20260502193816 26 163 4.8 14.5 0.00 0.00 0.00 25
20260502193314 25 147 4.8 19.3 0.00 0.00 0.00 24
20260502192814 26 167 6.4 17.7 0.00 0.00 0.00 26
20260502192312 26 297 3.2 14.5 0.00 0.00 0.00 26
20260502191809 25 267 1.6 8.0 0.00 0.00 0.00 29
20260502191307 25 159 9.7 17.7 0.00 0.00 0.00 28
20260502190804 25 21 1.6 6.4 0.00 0.00 0.00 30
20260502190301 24 26 4.8 9.7 0.00 0.00 0.00 34
20260502185756 23 117 3.2 9.7 0.00 0.00 0.00 36
20260502185247 23 28 1.6 8.0 0.00 0.00 0.00 35
20260502184744 23 97 4.8 8.0 0.00 0.00 0.00 35
20260502184240 23 103 1.6 14.5 0.00 0.00 0.00 35
20260502183737 23 76 3.2 6.4 0.00 0.00 0.00 35
20260502183232 23 143 3.2 4.8 0.00 0.00 0.00 35
20260502182728 23 78 6.4 14.5 0.00 0.00 0.00 33
20260502182223 23 91 4.8 12.9 0.00 0.00 0.00 32
20260502181720 23 159 3.2 8.0 0.00 0.00 0.00 36
20260502181219 23 198 1.6 9.7 0.00 0.00 0.00 34
20260502180716 22 44 1.6 11.3 0.00 0.00 0.00 39
20260502180214 22 89 4.8 14.5 0.00 0.00 0.00 35
20260502170132 19 179 9.7 9.7 0.00 0.00 0.00 39
20260502164113 18 176 8.0 11.3 0.00 0.00 0.00 41
20260502163609 18 178 4.8 11.3 0.00 0.00 0.00 41
20260502163106 17 159 6.4 14.5 0.00 0.00 0.00 42
20260502162602 17 224 4.8 8.0 0.00 0.00 0.00 43
20260502162100 17 161 9.7 12.9 0.00 0.00 0.00 43
20260502161556 17 153 9.7 12.9 0.00 0.00 0.00 42
20260502161054 16 148 8.0 11.3 0.00 0.00 0.00 44
20260502160552 16 105 4.8 9.7 0.00 0.00 0.00 44
20260502152005 13 110 3.2 8.0 0.00 0.00 0.00 58
20260502151501 13 177 1.6 8.0 0.00 0.00 0.00 56
20260502150959 12 189 6.4 8.0 0.00 0.00 0.00 57
20260502150456 13 205 1.6 9.7 0.00 0.00 0.00 59
20260502130341 10 139 4.8 9.7 0.00 0.00 0.00 56
20260502123323 9 106 1.6 9.7 0.00 0.00 0.00 59
20260502122820 9 138 11.3 12.9 0.00 0.00 0.00 58
20260502122316 9 153 4.8 11.3 0.00 0.00 0.00 60
20260502121815 8 145 6.4 9.7 0.00 0.00 0.00 62
20260502121312 8 151 9.7 11.3 0.00 0.00 0.00 62
20260502120809 8 169 6.4 16.1 0.00 0.00 0.00 62
20260502120305 9 186 4.8 9.7 0.00 0.00 0.00 61
20260502115803 9 111 3.2 8.0 0.00 0.00 0.00 60
20260502115259 9 145 4.8 6.4 0.00 0.00 0.00 59
20260502114755 10 125 3.2 6.4 0.00 0.00 0.00 58
20260502114252 10 61 6.4 6.4 0.00 0.00 0.00 57
20260502113749 10 150 8.0 12.9 0.00 0.00 0.00 57
20260502113247 10 88 4.8 9.7 0.00 0.00 0.00 58
20260502112745 9 137 9.7 9.7 0.00 0.00 0.00 60
20260502112243 8 146 3.2 6.4 0.00 0.00 0.00 62
20260502111739 8 124 4.8 8.0 0.00 0.00 0.00 62
20260502111237 8 179 6.4 8.0 0.00 0.00 0.00 63
20260502110734 8 148 6.4 9.7 0.00 0.00 0.00 62
20260502110232 8 155 3.2 8.0 0.00 0.00 0.00 62
20260502105730 8 143 3.2 12.9 0.00 0.00 0.00 62
20260502105226 8 140 8.0 11.3 0.00 0.00 0.00 63
20260502104724 7 161 3.2 8.0 0.00 0.00 0.00 65
20260502104221 8 184 4.8 4.8 0.00 0.00 0.00 64
20260502103719 8 157 0.0 6.4 0.00 0.00 0.00 64
20260502103216 8 183 0.0 9.7 0.00 0.00 0.00 63
20260502102713 8 114 3.2 8.0 0.00 0.00 0.00 64
20260502102209 8 143 6.4 8.0 0.00 0.00 0.00 63
20260502101708 8 128 3.2 9.7 0.00 0.00 0.00 63
20260502101206 8 125 4.8 6.4 0.00 0.00 0.00 63
20260502100703 8 122 3.2 12.9 0.00 0.00 0.00 63
20260502100201 8 153 8.0 9.7 0.00 0.00 0.00 64
20260502091136 11 135 3.2 8.0 0.00 0.00 0.00 53
20260502090632 11 151 6.4 8.0 0.00 0.00 0.00 53
20260502090130 11 162 8.0 9.7 0.00 0.00 0.00 53
20260502071527 12 147 6.4 6.4 0.00 0.00 0.00 49
20260502071025 12 146 3.2 4.8 0.00 0.00 0.00 49
20260502070523 13 160 3.2 6.4 0.00 0.00 0.00 46
20260502070021 14 137 3.2 6.4 0.00 0.00 0.00 42
20260502065519 15 56 3.2 8.0 0.00 0.00 0.00 41
20260502065017 15 97 6.4 14.5 0.00 0.00 0.00 41
20260502064515 15 101 4.8 8.0 0.00 0.00 0.00 41
20260502064012 15 62 3.2 9.7 0.00 0.00 0.00 41
20260502063509 14 62 3.2 12.9 0.00 0.00 0.00 42
20260502063007 13 64 8.0 8.0 0.00 0.00 0.00 45
20260502062503 11 80 3.2 6.4 0.00 0.00 0.00 48
20260502062002 10 86 3.2 4.8 0.00 0.00 0.00 51
20260502061500 9 81 1.6 1.6 0.00 0.00 0.00 55
20260502060955 9 69 3.2 3.2 0.00 0.00 0.00 56
20260502060451 10 93 1.6 3.2 0.00 0.00 0.00 56
20260502055948 10 137 1.6 3.2 0.00 0.00 0.00 58
20260502055447 9 85 1.6 3.2 0.00 0.00 0.00 57
20260502054946 8 89 3.2 3.2 0.00 0.00 0.00 57
20260502054444 8 87 1.6 3.2 0.00 0.00 0.00 58
20260502053941 8 92 1.6 3.2 0.00 0.00 0.00 58
20260502053432 8 77 1.6 3.2 0.00 0.00 0.00 57
20260502052930 10 62 0.0 1.6 0.00 0.00 0.00 57
20260502052428 10 103 0.0 1.6 0.00 0.00 0.00 55
20260502051926 10 103 0.0 3.2 0.00 0.00 0.00 52
20260502051424 10 125 3.2 3.2 0.00 0.00 0.00 52
20260502050920 10 106 1.6 1.6 0.00 0.00 0.00 51
20260502050416 11 93 3.2 3.2 0.00 0.00 0.00 50
20260502045914 11 75 3.2 3.2 0.00 0.00 0.00 49
20260502045410 12 87 1.6 3.2 0.00 0.00 0.00 47
20260502044902 12 85 3.2 4.8 0.00 0.00 0.00 46
20260502044358 12 84 3.2 4.8 0.00 0.00 0.00 45
20260502043855 12 78 3.2 4.8 0.00 0.00 0.00 45
20260502043353 12 64 3.2 3.2 0.00 0.00 0.00 47
20260502042852 12 55 1.6 3.2 0.00 0.00 0.00 44
20260502042350 12 64 3.2 3.2 0.00 0.00 0.00 44
20260502041847 12 106 0.0 3.2 0.00 0.00 0.00 43
20260502041344 13 81 3.2 3.2 0.00 0.00 0.00 42
20260502040841 13 68 3.2 4.8 0.00 0.00 0.00 42
20260502040338 13 76 3.2 3.2 0.00 0.00 0.00 43
20260502035834 13 77 1.6 3.2 0.00 0.00 0.00 41
20260502035331 13 87 1.6 3.2 0.00 0.00 0.00 41
20260502034828 14 82 3.2 3.2 0.00 0.00 0.00 40
20260502034327 15 88 1.6 3.2 0.00 0.00 0.00 39
20260502033825 15 117 1.6 3.2 0.00 0.00 0.00 36
20260502033322 15 94 1.6 3.2 0.00 0.00 0.00 40
20260502032819 15 95 3.2 3.2 0.00 0.00 0.00 39
20260502032315 15 87 3.2 3.2 0.00 0.00 0.00 40
20260502031813 15 77 1.6 3.2 0.00 0.00 0.00 40
20260502031311 15 80 1.6 3.2 0.00 0.00 0.00 39